Regional Weather Roundup
Issued by NWS

Home | Current Version | Previous Version | Graphics & Text | Print | Product List | Glossary On
Versions: 1 2 3 4 5 6 7 8 9 10 11 12 13 14 15 16 17 18 19 20 21 22 23 24 25 26 27 28 29 30 31 32 33 34 35 36 37 38 39 40 41 42 43 44 45 46 47 48 49 50
000
ASUS43 KIND 291709
RWRIN

WEATHER ROUNDUP FOR INDIANA
NATIONAL WEATHER SERVICE INDIANAPOLIS IN
1200 PM EST THU JAN 29 2015

NOTE: "FAIR" INDICATES FEW OR NO CLOUDS BELOW 12,000 FEET WITH NO
SIGNIFICANT WEATHER AND/OR OBSTRUCTIONS TO VISIBILITY.

* - STATION DOES NOT REPORT WEATHER SUCH AS PRECIPITATION OR FOG.

+ - STATION NOT QUALITY CONTROLLED BY THE NATIONAL WEATHER SERVICE.
    USE DATA WITH CAUTION...ESPECIALLY DEWPOINT AND RELATIVE
    HUMIDITY OBSERVATIONS.

INZ001>003-010>013-019-020-291800-
NORTHWEST INDIANA

CITY           SKY/WX    TMP DP  RH WIND       PRES   REMARKS
KNOX *+        CLOUDY    34  22  62 NW21G28   29.83  WCI  22
LA PORTE +     CLOUDY    35  32  88 NW20G29   29.84  FOG     WCI  24
MICHIGAN CITY+ CLOUDY    34  28  80 NW12G21   29.85  HAZE    WCI  25
MONTICELLO +   CLOUDY    35  32  89 NW17G24   29.85  WCI  25
RENSSELAER +   CLOUDY    36  32  87 NW15G21   29.88
VALPARAISO     CLOUDY    33  28  81 NW16G25   29.85  HAZE    WCI  23

$$

LMZ046-743>745-291800-
SOUTHERN LAKE MICHIGAN

STATION/POSITION TIME  TEMP WIND        PRES
                       AIR  DIR/SP/G
                 (UTC) (F)  (DEG/KT/KT) (MB)
MICHIGAN CITY    1700   34  310/ 28/ 32   N/A

$$

INZ004-005-014>016-021>024-291800-
NORTH CENTRAL INDIANA

CITY           SKY/WX    TMP DP  RH WIND       PRES   REMARKS
LOGANSPORT +   CLOUDY    36  32  87 NW13G22   29.83
PERU/GRISSOM   CLOUDY    37  33  85 NW17      29.79
ROCHESTER +    CLOUDY    37  32  81 NW14G24   29.80
SOUTH BEND     NOT AVBL
WARSAW +       CLOUDY    36  32  87 NW14      29.76

$$

INZ006>009-017-018-025>027-291800-
NORTHEAST INDIANA

CITY           SKY/WX    TMP DP  RH WIND       PRES   REMARKS
AUBURN +       LGT RAIN  36  32  87 SW7       29.73
FORT WAYNE     NOT AVBL
HUNTINGTON +   CLOUDY    39  30  70 W14       29.75

$$

INZ028-029-035-036-043>045-051>053-291800-
WEST CENTRAL INDIANA

CITY           SKY/WX    TMP DP  RH WIND       PRES   REMARKS
CRAWFORDSVL +  CLOUDY    33  28  83 W20       29.89  HAZE    WCI  21
LAFAYETTE      CLOUDY    34  31  88 W16G25    29.88  FOG     WCI  24
TERRE HAUTE    NOT AVBL

$$

INZ030>032-037>040-046>048-054>057-064-065-291800-
CENTRAL INDIANA

CITY           SKY/WX    TMP DP  RH WIND       PRES   REMARKS
CP ATTERBURY + CLOUDY    43  34  70 W16G28    29.88
GREENWOOD *+   CLOUDY    39  32  75 W24G33    29.87
INDIANAPOLIS   NOT AVBL
MARION +       CLOUDY    37  33  85 W14       29.79
SHELBYVILLE    NOT AVBL
ZIONSVILLE +   CLOUDY    37  32  81 W20G29    29.85  HAZE

$$

INZ033-034-041-042-049-050-058-059-291800-
EAST CENTRAL INDIANA

CITY           SKY/WX    TMP DP  RH WIND       PRES   REMARKS
MUNCIE         CLOUDY    39  35  86 W16G23    29.78  FOG

$$

INZ060-061-067>069-081>083-085>088-291800-
SOUTHWEST INDIANA

CITY           SKY/WX    TMP DP  RH WIND       PRES   REMARKS
EVANSVILLE     NOT AVBL
WASHINGTON +   CLOUDY    40  32  73 W20G31    30.00

$$

INZ062-063-066-070>080-084-089>092-291800-
SOUTH CENTRAL AND SOUTHEAST INDIANA

CITY           SKY/WX    TMP DP  RH WIND       PRES   REMARKS
BLOOMINGTON    NOT AVBL
NORTH VERNON + CLOUDY    48  37  66 W22       29.86
SEYMOUR +      CLOUDY    46  36  66 W30G36    29.89

$$



USA.gov is the U.S. government's official web portal to all federal, state and local government web resources and services.